Location: Dackenheim
(49.5215°N, 8.1854°E)
Time: 23:21:20
(UTC+00:00)

JY1SAT - Pass Details

Date: 23 March 2026
Orbit: 466 x 476 km, 97.4° (Epoch: 13 April)

Event Time Altitude Azimuth Distance (km) Brightness Sun altitude
Exits shadow 19:41:05 23° 44° (NE) 1,074 ? -19.0°
Drops below altitude 10° 19:43:13 10° 11° (N) 1,662 ? -19.3°
Sets 19:45:31 0° 358° (N) 2,545 ? -19.6°
